Погода в Энергодаре

Украина / Запорожская область     47°29′56″N   34°39′20″E
темп.,
°C
ветер,
м/с
пор.,
м/с
влажн.,
%
обл.,
%
осадки,
мм/ч
давл.,
гПа
погр.,
м
22 апреля, чт
чт2200:00+8юз59875 0.0 1019159
03:00+8юз35895 0.0 102093
06:00+7ююз34885 0.0 102083
09:00+11юз23735 0.0 1022287
12:00+14ю12625 0.3 1022812
15:00+15ссз125730 1.0 1021936
18:00+12в1172100 0.8 102135
21:00+11ююв44765 1.4 102241
23 апреля, пт
пт2300:00+9ююз48870 0.0 1021151
03:00+8ююз48880 0.0 1021163
06:00+8ююз49874 0.0 1021214
09:00+12ююз696914 0.0 1020384
12:00+15ююз795599 0.0 1019785
15:00+16ююз795056 0.0 10171151
18:00+15юз71055100 0.0 1016518
21:00+12юз5968100 0.0 1017217
24 апреля, сб
сб2400:00+10зюз3889100 0.9 1016330
03:00+8сз4786100 1.8 1016454
06:00+7сз46830 0.1 1018314
09:00+9зсз67700 0.1 1019665
12:00+11з810495 0.0 10191322
15:00+12з11125045 0.0 10191553
18:00+10з8124516 0.1 10191824
21:00+8сз48525 0.1 1022565
25 апреля, вс
вс2500:00+7зсз57550 0.0 1022212
03:00+6зсз45620 0.0 1023151
06:00+5зсз45650 0.0 1023146
09:00+8з44520 0.0 1023652
12:00+10з33420 0.0 1022957
15:00+11зсз23380 0.0 1021911
18:00+12ююз12403 0.0 1020804
21:00+10ююв445234 0.0 102052
26 апреля, пн
пн2600:00+7зюз47655 0.0 1020153
03:00+7зюз466670 0.0 1019157
06:00+6юз466864 0.0 1018143
09:00+8з7884100 0.1 1018857
12:00+8зсз477145 0.1 1019968
15:00+12з77425 0.1 10181342
18:00+12з684597 0.0 10171319
21:00+9зсз5105753 0.0 1018420